M I D A S
Marine Information and Data Acquisition System
Tripno 716 of the Zeeleeuw from 2004-05-13 06:35:09 to 2004-05-13 14:56:05
Back to CruiseResearch ActivitiesStationsMapUnderway DataData graphs

EquipmentUnitsComments
TimeDGPSUTC
LatitudeDGPSDM.mWGS84
LongitudeDGPSDM.mWGS84
SpeedMeteo Stationm/sRelative wind speed
DirectionMeteo StationdegRelative wind direction
TemperatureMeteo Stationdeg CelciusAir temperature
PressureMeteo StationPaAtmospheric pressure
HumidityMeteo Station%Relative humidity
Missing or incorrect values are displayed as -999
Metereological data collected by the RV Zeeleeuw from 2004-05-13 06:35:09 to 2004-05-13 14:56:05
Time Latitude Longitude Speed Direction Temperature Pressure Humidity
2004-05-13 06:36 51°13.603 2°56.067 3.7 259 9.7 102090 61
2004-05-13 06:37 51°13.576 2°56.113 2.9 269 9.7 102100 60
2004-05-13 06:38 51°13.536 2°56.186 5.1 301 9.7 102090 61
2004-05-13 06:39 51°13.538 2°56.239 2.9 336 9.7 102090 62
2004-05-13 06:40 51°13.543 2°56.234 3.6 16 9.7 102090 61
2004-05-13 06:41 51°13.525 2°56.239 2.9 59 9.7 102090 61
2004-05-13 06:42 51°13.556 2°56.159 4.8 62 9.6 102090 61
2004-05-13 06:43 51°13.611 2°56.012 6.1 40 9.6 102090 62
2004-05-13 06:44 51°13.685 2°55.851 5.9 63 9.6 102090 62
2004-05-13 06:45 51°13.771 2°55.698 6 40 9.7 102090 62
2004-05-13 06:46 51°13.884 2°55.602 9.3 25 9.7 102080 63
2004-05-13 06:47 51°14.007 2°55.53 8.3 28 9.7 102090 62
2004-05-13 06:48 51°14.141 2°55.412 11.4 28 9.7 102090 65
2004-05-13 06:49 51°14.297 2°55.182 9.4 40 9.8 102090 65
2004-05-13 06:50 51°14.426 2°54.936 12.6 40 9.8 102070 63
2004-05-13 06:51 51°14.604 2°54.716 14.3 30 9.8 102070 66
2004-05-13 06:52 51°14.795 2°54.521 14.4 29 9.8 102070 65
2004-05-13 06:53 51°14.984 2°54.351 13.8 27 9.8 102080 68
2004-05-13 06:54 51°15.187 2°54.218 14 29 9.8 102080 69
2004-05-13 06:55 51°15.409 2°54.076 16.8 24 9.8 102080 72
2004-05-13 06:56 51°15.611 2°53.947 15 23 9.8 102090 70
2004-05-13 06:57 51°15.815 2°53.82 15.6 23 9.8 102080 73
2004-05-13 06:58 51°16.024 2°53.709 14.4 24 9.8 102080 70
2004-05-13 06:59 51°16.235 2°53.596 14.5 24 9.7 102090 71
2004-05-13 07:00 51°16.445 2°53.482 16.3 23 9.7 102080 71
2004-05-13 07:01 51°16.653 2°53.367 16.8 18 9.7 102070 70
2004-05-13 07:02 51°16.862 2°53.25 16.4 17 9.7 102080 71
2004-05-13 07:03 51°17.07 2°53.141 14.8 20 9.7 102080 70
2004-05-13 07:04 51°17.289 2°53.07 15.5 14 9.8 102080 71
2004-05-13 07:05 51°17.51 2°53.154 15.4 4 9.7 102090 70
2004-05-13 07:06 51°17.715 2°53.336 14.4 352 9.7 102070 70
2004-05-13 07:07 51°17.92 2°53.519 16.4 356 9.7 102060 70
2004-05-13 07:08 51°18.128 2°53.697 16.7 359 9.7 102070 68
2004-05-13 07:09 51°18.33 2°53.88 15.5 346 9.8 102060 71
2004-05-13 07:10 51°18.51 2°54.122 14.4 340 9.8 102040 71
2004-05-13 07:11 51°18.665 2°54.411 14.6 333 9.7 102050 68
2004-05-13 07:12 51°18.808 2°54.715 16.2 330 9.7 102050 70
2004-05-13 07:13 51°18.954 2°55.015 15.6 337 9.7 102060 70
2004-05-13 07:14 51°19.1 2°55.314 13.9 335 9.7 102060 70
2004-05-13 07:15 51°19.242 2°55.619 14.4 331 9.7 102060 69
2004-05-13 07:16 51°19.377 2°55.934 14.2 338 9.8 102060 70
2004-05-13 07:17 51°19.506 2°56.256 15 333 9.8 102050 70
2004-05-13 07:18 51°19.636 2°56.578 13.6 333 9.7 102070 68
2004-05-13 07:19 51°19.766 2°56.901 14 332 9.7 102050 70
2004-05-13 07:20 51°19.893 2°57.221 15.5 329 9.7 102040 70
2004-05-13 07:21 51°20.019 2°57.534 15.4 332 9.7 102060 70
2004-05-13 07:22 51°20.153 2°57.868 13.4 339 9.7 102040 69
2004-05-13 07:23 51°20.286 2°58.204 13.7 332 9.7 102050 69
2004-05-13 07:24 51°20.41 2°58.538 15 334 9.7 102060 69
2004-05-13 07:25 51°20.533 2°58.876 13.7 329 9.7 102050 67
2004-05-13 07:26 51°20.658 2°59.211 14.4 337 9.7 102050 68
2004-05-13 07:27 51°20.788 2°59.569 14.8 331 9.8 102060 69
2004-05-13 07:28 51°20.912 2°59.905 12.1 333 9.7 102060 65
2004-05-13 07:29 51°21.035 3°0.24 14.6 341 9.7 102060 66
2004-05-13 07:30 51°21.158 3°0.575 14.2 343 9.8 102060 64
2004-05-13 07:31 51°21.282 3°0.909 13.6 339 9.9 102060 62
2004-05-13 07:32 51°21.406 3°1.241 14.6 339 9.9 102050 61
2004-05-13 07:33 51°21.568 3°1.522 15.1 350 9.9 102060 61
2004-05-13 07:34 51°21.742 3°1.78 15 343 10 102060 64
2004-05-13 07:35 51°21.916 3°2.04 14.7 341 9.9 102050 64
2004-05-13 07:36 51°22.088 3°2.303 15.1 352 9.9 102050 65
2004-05-13 07:37 51°22.261 3°2.564 15.9 352 9.9 102060 65
2004-05-13 07:38 51°22.441 3°2.807 14 356 9.8 102060 63
2004-05-13 07:39 51°22.62 3°3.05 14.9 345 9.8 102060 65
2004-05-13 07:40 51°22.8 3°3.294 14.6 346 9.8 102060 65
2004-05-13 07:41 51°22.974 3°3.536 16.3 352 9.8 102070 64
2004-05-13 07:42 51°23.157 3°3.785 14.6 348 9.8 102060 65
2004-05-13 07:43 51°23.348 3°4.003 13.9 357 9.8 102060 63
2004-05-13 07:44 51°23.55 3°4.199 15 1 9.7 102080 63
2004-05-13 07:45 51°23.756 3°4.382 15.4 358 9.8 102060 66
2004-05-13 07:46 51°23.958 3°4.564 14.1 1 9.8 102070 65
2004-05-13 07:47 51°24.17 3°4.756 15.3   9.8 102080 64
2004-05-13 07:48 51°24.371 3°4.939 14.7 3 9.8 102070 63
2004-05-13 07:49 51°24.577 3°5.129 15.8 354 9.8 102060 68
2004-05-13 07:50 51°24.78 3°5.315 15.8 358 9.7 102090 70
2004-05-13 07:51 51°24.984 3°5.499 15.6 357 9.7 102080 69
2004-05-13 07:52 51°25.182 3°5.703 14.8 350 9.7 102060 68
2004-05-13 07:53 51°25.365 3°5.944 15.4 340 9.7 102060 68
2004-05-13 07:54 51°25.529 3°6.221 13.9 332 9.7 102070 69
2004-05-13 07:55 51°25.656 3°6.538 15 337 9.6 102060 71
2004-05-13 07:56 51°25.804 3°6.885 15.8 340 9.6 102070 70
2004-05-13 07:57 51°25.935 3°7.182 13 335 9.6 102070 69
2004-05-13 07:58 51°26.08 3°7.512 14.8 335 9.5 102060 70
2004-05-13 07:59 51°26.217 3°7.818 14.4 338 9.5 102070 70
2004-05-13 08:00 51°26.33 3°8.072 11.9 335 9.5 102080 69
2004-05-13 08:01 51°26.392 3°8.18 9.8 328 9.5 102090 69
2004-05-13 08:02 51°26.41 3°8.259 9.7 307 9.5 102090 69
2004-05-13 08:03 51°26.417 3°8.327 9.8 298 9.5 102100 70
2004-05-13 08:04 51°26.433 3°8.43 9 42 9.6 102090 71
2004-05-13 08:05 51°26.448 3°8.529 9.6 305 9.6 102090 70
2004-05-13 08:06 51°26.463 3°8.618 9.2 313 9.6 102090 69
2004-05-13 08:07 51°26.477 3°8.696 10.2 307 9.6 102090 69
2004-05-13 08:08 51°26.494 3°8.77 10.3 228 9.5 102100 69
2004-05-13 08:09 51°26.512 3°8.844 10.1 318 9.5 102090 68
2004-05-13 08:10 51°26.532 3°8.914 10.4 319 9.5 102100 68
2004-05-13 08:11 51°26.553 3°8.985 11.3 329 9.5 102090 69
2004-05-13 08:12 51°26.577 3°9.06 10.7 330 9.5 102090 68
2004-05-13 08:13 51°26.604 3°9.137 11.1 329 9.5 102090 69
2004-05-13 08:14 51°26.634 3°9.209 11.6 339 9.5 102090 67
2004-05-13 08:15 51°26.665 3°9.275 10.7 336 9.5 102100 67
2004-05-13 08:16 51°26.697 3°9.337 9.1 335 9.5 102090 67
2004-05-13 08:17 51°26.733 3°9.4 10.1 331 9.5 102100 67
2004-05-13 08:18 51°26.77 3°9.465 8.1 338 9.5 102090 69
2004-05-13 08:19 51°26.808 3°9.531 9.6 343 9.6 102090 69
2004-05-13 08:20 51°26.845 3°9.598 9.1 334 9.6 102100 67
2004-05-13 08:21 51°26.882 3°9.67 8.4 329 9.5 102100 65
2004-05-13 08:22 51°26.918 3°9.738 9.1 332 9.5 102090 67
2004-05-13 08:23 51°26.951 3°9.805 10.6 332 9.5 102100 66
2004-05-13 08:24 51°26.983 3°9.871 9.6 327 9.5 102090 66
2004-05-13 08:25 51°27.011 3°9.937 9.7 337 9.5 102100 67
2004-05-13 08:26 51°27.041 3°10 9.2 342 9.5 102090 67
2004-05-13 08:27 51°27.073 3°10.059 8.8 333 9.5 102100 67
2004-05-13 08:28 51°27.105 3°10.117 9.3 338 9.6 102100 69
2004-05-13 08:29 51°27.137 3°10.175 10.4 334 9.5 102100 65
2004-05-13 08:30 51°27.17 3°10.233 9.1 345 9.5 102090 65
2004-05-13 08:31 51°27.203 3°10.289 9.7 335 9.6 102110 67
2004-05-13 08:32 51°27.237 3°10.35 8.7 339 9.5 102090 64
2004-05-13 08:33 51°27.267 3°10.411 10.1 335 9.5 102090 66
2004-05-13 08:34 51°27.297 3°10.471 10.7 337 9.5 102100 65
2004-05-13 08:35 51°27.328 3°10.531 9.7 334 9.5 102090 63
2004-05-13 08:36 51°27.362 3°10.589 8 342 9.5 102100 67
2004-05-13 08:37 51°27.397 3°10.647 9 336 9.5 102100 65
2004-05-13 08:38 51°27.426 3°10.716 8.9 228 9.5 102090 68
2004-05-13 08:39 51°27.451 3°10.794 9 313 9.5 102100 66
2004-05-13 08:40 51°27.474 3°10.874 7.8 312 9.5 102110 67
2004-05-13 08:41 51°27.492 3°10.945 7.9 297 9.6 102110 71
2004-05-13 08:42 51°27.504 3°10.996 7.8 304 9.5 102100 68
2004-05-13 08:43 51°27.514 3°11.066 7.7 282 9.5 102100 67
2004-05-13 08:44 51°27.475 3°11.14 5.5 206 9.5 102120 67
2004-05-13 08:45 51°27.414 3°11.114 5.3 153 9.5 102120 63
2004-05-13 08:46 51°27.369 3°11.059 4.8 151 9.5 102120 66
2004-05-13 08:47 51°27.345 3°10.996 7.7 121 9.5 102110 66
2004-05-13 08:48 51°27.336 3°10.928 8 107 9.4 102120 64
2004-05-13 08:49 51°27.339 3°10.863 7.4 113 9.4 102110 63
2004-05-13 08:50 51°27.335 3°10.802 5.2 128 9.4 102120 65
2004-05-13 08:51 51°27.319 3°10.743 6.5 127 9.4 102120 64
2004-05-13 08:52 51°27.306 3°10.685 7.3 102 9.4 102120 65
2004-05-13 08:53 51°27.297 3°10.625 8.2 113 9.4 102110 68
2004-05-13 08:54 51°27.289 3°10.563 8.4 110 9.4 102110 67
2004-05-13 08:55 51°27.281 3°10.502 7.3 104 9.4 102120 67
2004-05-13 08:56 51°27.271 3°10.442 6.2 114 9.4 102130 65
2004-05-13 08:57 51°27.257 3°10.383 6.3 118 9.4 102120 65
2004-05-13 08:58 51°27.244 3°10.323 6.2 134 9.5 102120 67
2004-05-13 08:59 51°27.231 3°10.26 6.8 131 9.4 102120 64
2004-05-13 09:00 51°27.218 3°10.198 7 119 9.4 102120 64
2004-05-13 09:01 51°27.203 3°10.139 6.9 132 9.4 102120 64
2004-05-13 09:02 51°27.185 3°10.079 6.2 140 9.4 102120 65
2004-05-13 09:03 51°27.165 3°10.023 6 141 9.4 102130 64
2004-05-13 09:04 51°27.144 3°9.964 5.1 143 9.4 102120 64
2004-05-13 09:05 51°27.123 3°9.908 4.3 135 9.3 102130 65
2004-05-13 09:06 51°27.102 3°9.849 4.4 141 9.4 102130 67
2004-05-13 09:07 51°27.081 3°9.792 5.3 133 9.3 102120 64
2004-05-13 09:08 51°27.062 3°9.734 5.6 135 9.4 102130 67
2004-05-13 09:09 51°27.043 3°9.677 5.6 226 9.4 102130 66
2004-05-13 09:10 51°27.027 3°9.618 6 137 9.4 102130 68
2004-05-13 09:11 51°27.011 3°9.56 6.4 129 9.4 102140 67
2004-05-13 09:12 51°26.995 3°9.501 6.2 125 9.3 102130 65
2004-05-13 09:13 51°26.976 3°9.447 6.5 134 9.4 102140 66
2004-05-13 09:14 51°26.957 3°9.389 6.6 135 9.4 102130 67
2004-05-13 09:15 51°26.941 3°9.332 6.5 118 9.4 102140 68
2004-05-13 09:16 51°26.932 3°9.272 7.1 112 9.4 102140 67
2004-05-13 09:17 51°26.933 3°9.212 7.8 96 9.4 102140 66
2004-05-13 09:18 51°26.94 3°9.158 9.8 102 9.4 102140 66
2004-05-13 09:19 51°26.95 3°9.126 8.4 98 9.4 102140 67
2004-05-13 09:20 51°26.96 3°9.107 8.5 86 9.3 102140 67
2004-05-13 09:21 51°26.968 3°9.099 8.7 92 9.4 102130 67
2004-05-13 09:22 51°26.975 3°9.082 6.9 95 9.4 102140 65
2004-05-13 09:23 51°26.969 3°9.035 5.6 134 9.4 102150 65
2004-05-13 09:24 51°26.899 3°9.063 4.3 249 9.4 102160 66
2004-05-13 09:25 51°26.776 3°9.241 3.6 287 9.4 102150 65
2004-05-13 09:26 51°26.604 3°9.461 6.5 296 9.4 102150 66
2004-05-13 09:27 51°26.427 3°9.692 4 293 9.4 102150 66
2004-05-13 09:28 51°26.262 3°9.905 5.4 294 9.4 102140 66
2004-05-13 09:29 51°26.082 3°10.128 4.9 310 9.4 102150 67
2004-05-13 09:30 51°25.914 3°10.361 4.5 290 9.5 102140 66
2004-05-13 09:31 51°25.752 3°10.604 4.8 287 9.5 102150 67
2004-05-13 09:32 51°25.602 3°10.857 7.4 308 9.5 102150 66
2004-05-13 09:33 51°25.492 3°11.182 7.5 303 9.5 102140 65
2004-05-13 09:34 51°25.442 3°11.541 8.4 312 9.6 102140 66
2004-05-13 09:35 51°25.394 3°11.904 6.5 306 9.6 102130 67
2004-05-13 09:36 51°25.341 3°12.258 7.8 313 9.7 102130 66
2004-05-13 09:37 51°25.286 3°12.622 7.9 305 9.7 102130 66
2004-05-13 09:38 51°25.229 3°12.989 8.6 44 9.7 102130 65
2004-05-13 09:39 51°25.195 3°13.246 7.2 293 9.8 102130 65
2004-05-13 09:40 51°25.202 3°13.364 7 295 9.8 102140 65
2004-05-13 09:41 51°25.219 3°13.445 6.8 305 9.9 102130 66
2004-05-13 09:42 51°25.244 3°13.543 8.7 298 9.9 102130 65
2004-05-13 09:43 51°25.263 3°13.636 7.4 293 10 102130 67
2004-05-13 09:44 51°25.281 3°13.733 6.6 292 10 102130 65
2004-05-13 09:45 51°25.29 3°13.827 7.2 277 10 102130 65
2004-05-13 09:46 51°25.292 3°13.911 7.5 282 10 102130 66
2004-05-13 09:47 51°25.29 3°13.989 8.3 282 10 102120 64
2004-05-13 09:48 51°25.288 3°14.063 9 270 10 102120 66
2004-05-13 09:49 51°25.287 3°14.134 9.1 263 10 102130 67
2004-05-13 09:50 51°25.286 3°14.204 6.4 271 9.9 102120 66
2004-05-13 09:51 51°25.286 3°14.273 8.6 268 10 102120 68
2004-05-13 09:52 51°25.284 3°14.342 5.1 257 9.9 102120 65
2004-05-13 09:53 51°25.282 3°14.41 5.6 256 9.9 102120 67
2004-05-13 09:54 51°25.28 3°14.48 5.9 260 9.8 102120 65
2004-05-13 09:55 51°25.278 3°14.55 5.1 254 9.8 102120 65
2004-05-13 09:56 51°25.274 3°14.619 4.7 251 9.7 102130 64
2004-05-13 09:57 51°25.27 3°14.687 8.5 267 9.7 102120 66
2004-05-13 09:58 51°25.269 3°14.759 7.1 276 9.7 102120 66
2004-05-13 09:59 51°25.269 3°14.826 7.7 269 9.8 102120 65
2004-05-13 10:01 51°25.271 3°14.899 7.7 265 9.9 102130 66
2004-05-13 10:02 51°25.273 3°14.967 7.6 265 9.9 102120 66
2004-05-13 10:03 51°25.276 3°15.035 7.8 282 9.9 102130 66
2004-05-13 10:04 51°25.278 3°15.101 10.3 265 10 102120 66
2004-05-13 10:05 51°25.278 3°15.166 7.2 264 9.9 102130 64
2004-05-13 10:06 51°25.28 3°15.236 7.5 266 9.9 102120 63
2004-05-13 10:07 51°25.284 3°15.306 7.8 269 9.9 102120 66
2004-05-13 10:08 51°25.287 3°15.369 8.9 265 9.9 102130 65
2004-05-13 10:09 51°25.29 3°15.433 7.7 263 9.9 102130 63
2004-05-13 10:10 51°25.293 3°15.494 6.2 262 9.9 102130 63
2004-05-13 10:11 51°25.298 3°15.556 7.1 272 10 102130 67
2004-05-13 10:12 51°25.301 3°15.617 8.4 271 10 102120 64
2004-05-13 10:13 51°25.305 3°15.676 7.4 271 10 102130 65
2004-05-13 10:14 51°25.31 3°15.735 8.2 280 10.1 102130 63
2004-05-13 10:15 51°25.315 3°15.793 7.5 275 10.2 102120 64
2004-05-13 10:16 51°25.318 3°15.851 7.9 277 10.3 102130 65
2004-05-13 10:17 51°25.322 3°15.911 6.4 273 10.2 102120 62
2004-05-13 10:18 51°25.325 3°15.969 7.8 274 10.2 102130 65
2004-05-13 10:19 51°25.327 3°16.033 6.6 275 10.2 102130 62
2004-05-13 10:20 51°25.324 3°16.101 7.1 261 10.2 102140 63
2004-05-13 10:21 51°25.316 3°16.175 5.1 258 10.1 102140 63
2004-05-13 10:22 51°25.29 3°16.26 5.2 234 10 102140 64
2004-05-13 10:23 51°25.213 3°16.279 5.7 133 10 102150 63
2004-05-13 10:24 51°25.163 3°16.179 6.7 93 10 102140 62
2004-05-13 10:25 51°25.155 3°16.101 7.8 96 9.9 102140 64
2004-05-13 10:26 51°25.156 3°16.049 7.4 89 9.9 102140 63
2004-05-13 10:27 51°25.162 3°16.006 8.8 63 9.8 102140 63
2004-05-13 10:28 51°25.243 3°15.91 10.6 5 9.7 102130 62
2004-05-13 10:29 51°25.355 3°16.037 9.5 313 9.8 102130 63
2004-05-13 10:30 51°25.295 3°16.215 3.5 221 9.8 102140 61
2004-05-13 10:31 51°25.229 3°16.229 5.4 130 9.9 102150 63
2004-05-13 10:32 51°25.197 3°16.159 7.2 108 9.9 102150 63
2004-05-13 10:33 51°25.181 3°16.075 6.7 90 9.9 102150 66
2004-05-13 10:34 51°25.177 3°15.988 6.8 83 9.9 102150 65
2004-05-13 10:35 51°25.181 3°15.9 6.7 71 9.9 102140 65
2004-05-13 10:36 51°25.182 3°15.815 8.4 83 9.8 102140 61
2004-05-13 10:37 51°25.179 3°15.732 7.6 79 9.7 102150 63
2004-05-13 10:38 51°25.174 3°15.65 8.7 83 9.7 102150 62
2004-05-13 10:39 51°25.17 3°15.567 5.4 76 9.7 102150 63
2004-05-13 10:40 51°25.167 3°15.482 7.4 84 9.7 102160 63
2004-05-13 10:41 51°25.164 3°15.395 6.7 92 9.7 102140 63
2004-05-13 10:42 51°25.16 3°15.309 7.6 89 9.8 102150 67
2004-05-13 10:43 51°25.157 3°15.222 8.2 86 9.8 102150 63
2004-05-13 10:44 51°25.151 3°15.137 7 94 9.8 102150 66
2004-05-13 10:45 51°25.146 3°15.049 6.8 89 9.8 102160 64
2004-05-13 10:46 51°25.14 3°14.963 7.8 95 9.8 102160 64
2004-05-13 10:47 51°25.134 3°14.88 7.1 93 9.8 102160 64
2004-05-13 10:48 51°25.129 3°14.783 8 91 9.8 102160 64
2004-05-13 10:49 51°25.123 3°14.698 6.6 82 9.8 102160 65
2004-05-13 10:50 51°25.118 3°14.614 6.5 75 9.8 102160 65
2004-05-13 10:51 51°25.115 3°14.527 7.2 81 9.8 102160 67
2004-05-13 10:52 51°25.111 3°14.444 7.7 83 9.8 102160 64
2004-05-13 10:53 51°25.107 3°14.359 7.9 82 9.7 102160 65
2004-05-13 10:54 51°25.102 3°14.276 8.1 88 9.7 102160 65
2004-05-13 10:55 51°25.097 3°14.194 4.8 76 9.7 102170 63
2004-05-13 10:56 51°25.094 3°14.111 6.7 90 9.8 102170 65
2004-05-13 10:57 51°25.091 3°14.031 6.7 102 9.8 102170 66
2004-05-13 10:58 51°25.089 3°13.945 6.6 90 9.9 102170 67
2004-05-13 10:59 51°25.087 3°13.866 6.2 87 9.9 102170 67
2004-05-13 11:00 51°25.083 3°13.784 7.4 92 9.9 102170 68
2004-05-13 11:01 51°25.079 3°13.7 7.1 89 9.8 102180 67
2004-05-13 11:02 51°25.074 3°13.609 7.1 87 9.9 102170 66
2004-05-13 11:03 51°25.071 3°13.526 7.2 87 9.9 102170 67
2004-05-13 11:04 51°25.067 3°13.441 6.8 98 9.8 102170 64
2004-05-13 11:05 51°25.065 3°13.35 7.1 83 9.9 102170 67
2004-05-13 11:06 51°25.062 3°13.262 8.8 82 9.9 102170 66
2004-05-13 11:07 51°25.059 3°13.177 8.2 91 9.9 102170 65
2004-05-13 11:08 51°25.056 3°13.088 6.7 80 9.8 102170 63
2004-05-13 11:09 51°25.054 3°13.007 6.3 96 9.8 102180 66
2004-05-13 11:10 51°25.053 3°12.944 7.9 96 9.9 102180 69
2004-05-13 11:11 51°25.051 3°12.893 7.1 100 9.9 102170 67
2004-05-13 11:12 51°25.054 3°12.708 11.6 49 9.9 102170 68
2004-05-13 11:13 51°25.113 3°12.386 8.9 61 9.8 102150 65
2004-05-13 11:14 51°25.055 3°12.047 7.2 79 9.8 102170 69
2004-05-13 11:15 51°24.894 3°11.791 5.2 69 9.8 102180 70
2004-05-13 11:16 51°24.731 3°11.549 7.7 63 9.7 102180 66
2004-05-13 11:17 51°24.597 3°11.242 8.1 66 9.7 102170 67
2004-05-13 11:18 51°24.468 3°10.941 7.2 57 9.7 102180 69
2004-05-13 11:19 51°24.335 3°10.637 7.2 70 9.7 102170 69
2004-05-13 11:20 51°24.202 3°10.322 6.3 79 9.8 102170 69
2004-05-13 11:21 51°24.071 3°10.022 6.7 76 9.8 102180 70
2004-05-13 11:22 51°23.921 3°9.752 8.4 88 9.8 102180 70
2004-05-13 11:23 51°23.757 3°9.506 4.1 77 9.7 102190 70
2004-05-13 11:24 51°23.577 3°9.269 5.4 80 9.8 102190 71
2004-05-13 11:25 51°23.408 3°9.039 4.4 79 9.8 102180 70
2004-05-13 11:26 51°23.229 3°8.794 5.3 80 9.8 102190 69
2004-05-13 11:27 51°23.058 3°8.562 7.1 65 9.8 102190 70
2004-05-13 11:28 51°22.881 3°8.316 7 86 9.8 102190 69
2004-05-13 11:29 51°22.716 3°8.064 7.1 69 9.8 102190 72
2004-05-13 11:30 51°22.556 3°7.801 6.6 77 9.7 102190 70
2004-05-13 11:31 51°22.386 3°7.532 5.6 68 9.6 102190 68
2004-05-13 11:32 51°22.227 3°7.278 5.5 80 9.6 102190 68
2004-05-13 11:33 51°22.059 3°6.998 6.6 68 9.7 102190 72
2004-05-13 11:34 51°21.896 3°6.735 5.9 78 9.7 102190 71
2004-05-13 11:35 51°21.727 3°6.468 7.3 86 9.7 102200 70
2004-05-13 11:36 51°21.583 3°6.19 7.2 74 9.7 102190 69
2004-05-13 11:37 51°21.457 3°5.859 7.4 77 9.7 102190 68
2004-05-13 11:38 51°21.337 3°5.544 8 75 9.7 102190 69
2004-05-13 11:39 51°21.214 3°5.223 7.4 69 9.7 102200 70
2004-05-13 11:40 51°21.099 3°4.889 8.3 66 9.7 102190 68
2004-05-13 11:41 51°20.988 3°4.568 8.2 72 9.6 102190 68
2004-05-13 11:42 51°20.875 3°4.235 6 74 9.6 102200 68
2004-05-13 11:43 51°20.763 3°3.915 8 77 9.7 102200 70
2004-05-13 11:44 51°20.651 3°3.591 8.4 67 9.7 102200 68
2004-05-13 11:45 51°20.541 3°3.271 8.2 61 9.7 102200 68
2004-05-13 11:46 51°20.423 3°2.937 8 61 9.7 102200 67
2004-05-13 11:47 51°20.336 3°2.62 7.5 82 9.7 102200 69
2004-05-13 11:48 51°20.271 3°2.44 5.9 102 9.6 102200 67
2004-05-13 11:49 51°20.251 3°2.36 6.7 123 9.7 102200 66
2004-05-13 11:50 51°20.236 3°2.319 6.9 117 9.8 102200 70
2004-05-13 11:51 51°20.223 3°2.276 7.6 110 9.8 102200 69
2004-05-13 11:52 51°20.208 3°2.196 6.4 104 9.8 102210 65
2004-05-13 11:53 51°20.189 3°2.098 6.3 109 9.8 102210 69
2004-05-13 11:54 51°20.164 3°2.019 5.7 132 9.8 102210 67
2004-05-13 11:55 51°20.134 3°1.946 6 131 9.9 102210 69
2004-05-13 11:56 51°20.11 3°1.867 6.5 106 9.9 102210 68
2004-05-13 11:57 51°20.094 3°1.788 7 98 9.9 102210 69
2004-05-13 11:58 51°20.085 3°1.711 7 97 9.9 102200 64
2004-05-13 11:59 51°20.076 3°1.626 8.1 108 9.9 102210 68
2004-05-13 12:00 51°20.064 3°1.538 6.4 109 9.8 102210 66
2004-05-13 12:01 51°20.049 3°1.452 6.6 117 9.9 102210 66
2004-05-13 12:02 51°20.032 3°1.366 6.2 106 9.8 102210 64
2004-05-13 12:03 51°20.014 3°1.283 8.4 107 9.9 102210 65
2004-05-13 12:04 51°19.996 3°1.202 7.9 111 9.9 102210 65
2004-05-13 12:05 51°19.979 3°1.118 7.6 102 9.8 102210 64
2004-05-13 12:06 51°19.962 3°1.034 8 108 9.8 102210 65
2004-05-13 12:07 51°19.947 3°0.949 6.1 109 9.8 102210 64
2004-05-13 12:08 51°19.931 3°0.864 5.7 106 9.9 102210 68
2004-05-13 12:09 51°19.914 3°0.777 6.5 100 9.9 102210 66
2004-05-13 12:10 51°19.897 3°0.69 7.6 103 9.9 102210 67
2004-05-13 12:11 51°19.881 3°0.604 6.4 113 9.9 102210 64
2004-05-13 12:12 51°19.864 3°0.517 6.9 101 9.9 102210 65
2004-05-13 12:13 51°19.848 3°0.429 7.4 117 9.9 102210 66
2004-05-13 12:14 51°19.833 3°0.342 6.7 97 9.9 102210 65
2004-05-13 12:15 51°19.818 3°0.256 6.4 99 9.9 102210 65
2004-05-13 12:16 51°19.803 3°0.171 7.2 111 9.9 102210 66
2004-05-13 12:17 51°19.786 3°0.079 7.5 105 9.8 102210 64
2004-05-13 12:18 51°19.767 2°59.991 6.9 111 9.8 102220 66
2004-05-13 12:19 51°19.75 2°59.904 6.3 106 9.8 102220 64
2004-05-13 12:20 51°19.733 2°59.817 6.3 119 9.8 102210 66
2004-05-13 12:21 51°19.718 2°59.733 7.4 104 9.8 102220 65
2004-05-13 12:22 51°19.705 2°59.648 5.9 105 9.8 102220 64
2004-05-13 12:23 51°19.688 2°59.547 7.7 94 9.8 102220 63
2004-05-13 12:24 51°19.676 2°59.377 7 79 9.8 102210 68
2004-05-13 12:25 51°19.678 2°59.254 6.7 77 9.8 102210 64
2004-05-13 12:26 51°19.683 2°59.172 5.9 70 9.7 102220 65
2004-05-13 12:27 51°19.685 2°59.109 6.6 80 9.7 102210 64
2004-05-13 12:28 51°19.68 2°58.967 7.3 64 9.7 102200 64
2004-05-13 12:29 51°19.737 2°58.724 11.6 21 9.7 102210 63
2004-05-13 12:30 51°19.868 2°58.755 8.2 326 9.8 102210 63
2004-05-13 12:31 51°19.893 2°58.849 7.7 302 9.8 102210 64
2004-05-13 12:32 51°19.898 2°58.924 6.6 305 9.9 102210 61
2004-05-13 12:33 51°19.904 2°58.997 7.4 307 9.9 102220 60
2004-05-13 12:34 51°19.91 2°59.07 6.7 306 10 102210 62
2004-05-13 12:35 51°19.917 2°59.139 7.8 303 10.1 102220 62
2004-05-13 12:36 51°19.925 2°59.206 8.2 301 10.1 102220 61
2004-05-13 12:37 51°19.932 2°59.27 8.6 286 10.1 102220 61
2004-05-13 12:38 51°19.937 2°59.33 8.8 292 10.2 102210 64
2004-05-13 12:39 51°19.942 2°59.388 7 299 10.2 102220 62
2004-05-13 12:40 51°19.947 2°59.447 6 302 10.2 102220 60
2004-05-13 12:41 51°19.952 2°59.506 7.1 293 10.2 102220 62
2004-05-13 12:42 51°19.958 2°59.564 6.9 303 10.3 102220 62
2004-05-13 12:43 51°19.962 2°59.622 6.7 294 10.3 102220 63
2004-05-13 12:44 51°19.968 2°59.679 5.6 295 10.3 102210 61
2004-05-13 12:45 51°19.973 2°59.735 6.3 305 10.4 102220 61
2004-05-13 12:46 51°19.98 2°59.792 7.6 301 10.3 102210 59
2004-05-13 12:47 51°19.988 2°59.852 6.2 301 10.4 102200 59
2004-05-13 12:48 51°19.998 2°59.915 6.3 303 10.4 102220 60
2004-05-13 12:49 51°20.008 2°59.977 5.9 306 10.4 102220 60
2004-05-13 12:50 51°20.016 3°0.04 7.3 298 10.6 102220 61
2004-05-13 12:51 51°20.026 3°0.104 6.6 305 10.5 102210 60
2004-05-13 12:52 51°20.036 3°0.168 6.1 301 10.6 102220 60
2004-05-13 12:53 51°20.045 3°0.234 7.2 314 10.6 102210 62
2004-05-13 12:54 51°20.055 3°0.303 6.4 305 10.6 102210 58
2004-05-13 12:55 51°20.064 3°0.368 5.7 295 10.5 102210 58
2004-05-13 12:56 51°20.074 3°0.432 7 295 10.6 102210 60
2004-05-13 12:57 51°20.082 3°0.497 5.7 302 10.6 102210 60
2004-05-13 12:58 51°20.091 3°0.56 5.9 297 10.6 102210 59
2004-05-13 12:59 51°20.1 3°0.625 7 294 10.6 102210 59
2004-05-13 13:00 51°20.107 3°0.692 7.4 291 10.6 102210 59
2004-05-13 13:01 51°20.096 3°0.766 6.8 268 10.5 102220 58
2004-05-13 13:02 51°20.07 3°0.827 4.1 252 10.4 102220 58
2004-05-13 13:03 51°20.018 3°0.851 2.5 181 10.3 102220 61
2004-05-13 13:04 51°19.967 3°0.814 4.6 151 10.2 102220 59
2004-05-13 13:05 51°19.932 3°0.76 5.7 134 10.2 102220 61
2004-05-13 13:06 51°19.908 3°0.71 5.8 116 10.2 102210 64
2004-05-13 13:07 51°19.889 3°0.664 6.6 121 10.1 102220 60
2004-05-13 13:08 51°19.874 3°0.605 7.5 66 10.1 102220 62
2004-05-13 13:09 51°19.935 3°0.443 10.1 15 10 102200 61
2004-05-13 13:10 51°20.045 3°0.283 9.7 28 10.1 102190 64
2004-05-13 13:11 51°20.107 3°0.187 7.7 23 10.1 102200 60
2004-05-13 13:12 51°20.144 3°0.133 7.1 21 10.1 102200 61
2004-05-13 13:13 51°20.177 3°0.113 6.4 339 10.1 102220 62
2004-05-13 13:14 51°20.187 3°0.118 5.8 318 10.1 102210 62
2004-05-13 13:15 51°20.184 3°0.122 7.2 302 10.2 102210 61
2004-05-13 13:16 51°20.177 3°0.122 5.8 299 10.2 102210 59
2004-05-13 13:17 51°20.167 3°0.118 6.3 274 10.4 102220 60
2004-05-13 13:18 51°20.158 3°0.112 6.1 275 10.3 102220 59
2004-05-13 13:19 51°20.151 3°0.106 6.2 306 10.4 102220 62
2004-05-13 13:20 51°20.15 3°0.106 5.7 313 10.5 102210 61
2004-05-13 13:21 51°20.157 3°0.106 6.7 328 10.5 102220 62
2004-05-13 13:22 51°20.177 3°0.09 6.6 4 10.5 102220 58
2004-05-13 13:23 51°20.196 2°59.997 7.8 84 10.4 102210 61
2004-05-13 13:24 51°20.138 2°59.763 5.1 77 10.2 102210 62
2004-05-13 13:25 51°20.054 2°59.444 7.7 48 10 102210 63
2004-05-13 13:26 51°19.959 2°59.074 7.6 44 9.9 102210 60
2004-05-13 13:28 51°19.858 2°58.69 8.6 56 9.8 102220 63
2004-05-13 13:29 51°19.767 2°58.328 6.5 36 9.7 102210 61
2004-05-13 13:30 51°19.666 2°57.942 7.5 52 9.7 102210 61
2004-05-13 13:31 51°19.571 2°57.574 8 51 9.7 102210 61
2004-05-13 13:32 51°19.481 2°57.218 7.6 46 9.7 102220 61
2004-05-13 13:33 51°19.386 2°56.855 7.9 40 9.7 102210 62
2004-05-13 13:34 51°19.292 2°56.492 6.9 52 9.7 102210 62
2004-05-13 13:35 51°19.19 2°56.104 6.5 39 9.7 102210 62
2004-05-13 13:36 51°19.109 2°55.744 7 59 9.7 102210 60
2004-05-13 13:37 51°19.023 2°55.373 5.9 51 9.7 102210 63
2004-05-13 13:38 51°18.934 2°54.989 6.6 55 9.7 102200 62
2004-05-13 13:39 51°18.848 2°54.618 8 47 9.7 102210 63
2004-05-13 13:40 51°18.762 2°54.247 6.8 49 9.7 102210 64
2004-05-13 13:41 51°18.677 2°53.876 6.8 49 9.7 102210 64
2004-05-13 13:42 51°18.588 2°53.507 6.5 34 9.7 102200 64
2004-05-13 13:43 51°18.503 2°53.148 6.9 44 9.7 102210 62
2004-05-13 13:44 51°18.411 2°52.766 7.6 59 9.7 102210 63
2004-05-13 13:45 51°18.292 2°52.422 6 55 9.7 102210 64
2004-05-13 13:46 51°18.137 2°52.114 4.3 64 9.7 102220 62
2004-05-13 13:47 51°17.949 2°51.879 4 58 9.8 102220 64
2004-05-13 13:48 51°17.739 2°51.65 3.1 44 9.8 102230 64
2004-05-13 13:49 51°17.521 2°51.475 2.6 11 9.9 102230 62
2004-05-13 13:50 51°17.288 2°51.337 4.6 29 10.1 102220 63
2004-05-13 13:51 51°17.029 2°51.235 2.7 14 10.1 102230 61
2004-05-13 13:52 51°16.794 2°51.154 2 358 10.3 102230 62
2004-05-13 13:53 51°16.559 2°51.127 1.6 1 10.4 102230 60
2004-05-13 13:54 51°16.311 2°51.105 1.9 6 10.4 102230 59
2004-05-13 13:55 51°16.069 2°51.075 3 5 10.6 102230 60
2004-05-13 13:56 51°15.813 2°51.084 2.2 356 10.7 102230 58
2004-05-13 13:57 51°15.576 2°51.095 2.1 347 10.7 102230 58
2004-05-13 13:58 51°15.338 2°51.102 3.3 339 10.8 102230 58
2004-05-13 13:59 51°15.131 2°51.162 2.2 284 10.9 102230 59
2004-05-13 14:00 51°15.022 2°51.193 2.9 221 10.8 102240 58
2004-05-13 14:01 51°14.946 2°51.17 1.8 172 10.7 102230 60
2004-05-13 14:02 51°14.878 2°51.117 2.1 160 10.7 102230 59
2004-05-13 14:03 51°14.811 2°51.046 2.3 140 10.6 102230 61
2004-05-13 14:04 51°14.757 2°50.968 3.2 145 10.6 102230 61
2004-05-13 14:05 51°14.701 2°50.867 4.5 133 10.5 102230 63
2004-05-13 14:06 51°14.659 2°50.778 2.7 132 10.5 102220 61
2004-05-13 14:07 51°14.621 2°50.695 4.3 115 10.5 102230 62
2004-05-13 14:08 51°14.585 2°50.61 4.4 125 10.4 102220 61
2004-05-13 14:09 51°14.553 2°50.529 5.4 123 10.4 102230 62
2004-05-13 14:10 51°14.521 2°50.451 5 120 10.3 102230 61
2004-05-13 14:11 51°14.491 2°50.374 3.3 133 10.3 102220 64
2004-05-13 14:12 51°14.458 2°50.295 3 136 10.3 102230 65
2004-05-13 14:13 51°14.425 2°50.219 5.3 134 10.4 102220 64
2004-05-13 14:14 51°14.392 2°50.143 5.5 141 10.3 102230 62
2004-05-13 14:15 51°14.358 2°50.067 4.9 129 10.2 102220 64
2004-05-13 14:16 51°14.325 2°49.99 5.1 133 10.2 102220 67
2004-05-13 14:17 51°14.291 2°49.912 4 118 10.2 102220 68
2004-05-13 14:18 51°14.259 2°49.832 4.6 127 10.2 102230 65
2004-05-13 14:19 51°14.226 2°49.755 4.2 144 10.2 102230 63
2004-05-13 14:20 51°14.194 2°49.676 4.5 136 10.1 102230 66
2004-05-13 14:21 51°14.166 2°49.6 5.3 134 10.1 102220 64
2004-05-13 14:22 51°14.139 2°49.491 5.5 99 10.1 102220 68
2004-05-13 14:23 51°14.129 2°49.383 5.4 84 10.1 102220 68
2004-05-13 14:24 51°14.121 2°49.295 4.5 74 10.1 102220 65
2004-05-13 14:25 51°14.11 2°49.221 5.4 84 10.1 102230 67
2004-05-13 14:26 51°14.099 2°49.156 5.9 87 10.1 102220 64
2004-05-13 14:27 51°14.107 2°49.065 6.8 26 10.1 102230 67
2004-05-13 14:28 51°14.177 2°49.061 9.6 346 10.1 102220 65
2004-05-13 14:29 51°14.269 2°49.191 10.8 343 10.1 102210 63
2004-05-13 14:30 51°14.362 2°49.375 9.5 337 10.2 102220 63
2004-05-13 14:31 51°14.451 2°49.595 9.9 335 10.2 102220 64
2004-05-13 14:32 51°14.547 2°49.82 12.1 346 10.2 102210 65
2004-05-13 14:33 51°14.644 2°50.048 10.7 342 10.2 102210 63
2004-05-13 14:34 51°14.745 2°50.283 10.5 348 10.2 102210 64
2004-05-13 14:35 51°14.852 2°50.53 12.6 349 10.2 102210 65
2004-05-13 14:36 51°14.958 2°50.795 10.8 343 10.2 102210 65
2004-05-13 14:37 51°14.995 2°51.114 8.9 336 10.2 102210 64
2004-05-13 14:38 51°14.986 2°51.439 9.7 330 10.1 102220 62
2004-05-13 14:39 51°14.974 2°51.759 10.4 334 10.1 102210 63
2004-05-13 14:40 51°14.941 2°52.086 10.6 324 10.1 102210 65
2004-05-13 14:41 51°14.896 2°52.414 8.9 325 10.1 102210 64
2004-05-13 14:42 51°14.839 2°52.72 8.9 325 10.1 102210 65
2004-05-13 14:43 51°14.781 2°53.052 9.5 331 10.1 102220 65
2004-05-13 14:44 51°14.72 2°53.373 9.7 332 10.2 102220 65
2004-05-13 14:45 51°14.671 2°53.702 10.3 327 10.2 102220 65
2004-05-13 14:46 51°14.62 2°54.042 8.4 324 10.1 102220 65
2004-05-13 14:47 51°14.552 2°54.363 10 324 10.1 102210 65
2004-05-13 14:48 51°14.47 2°54.676 7.5 321 10.1 102220 63
2004-05-13 14:49 51°14.386 2°54.974 8.6 228 10.1 102210 65
2004-05-13 14:50 51°14.286 2°55.227 4.3 315 10.2 102220 64
2004-05-13 14:51 51°14.196 2°55.374 4.2 263 10.3 102230 66
2004-05-13 14:52 51°14.098 2°55.462 3 262 10.2 102230 64
2004-05-13 14:53 51°13.986 2°55.54 3.2 241 10.3 102230 63
2004-05-13 14:54 51°13.867 2°55.617 1.7 257 10.3 102220 62
2004-05-13 14:55 51°13.755 2°55.712 3 313 10.3 102220 62